BHUTAN-1 (43591 NORAD) Tracking and Keplerian Element Data

This shows tracking and keplerian element data for the satellite.

Feedback or suggestion? Click here.




ElementValue
Catalog43591
NameBHUTAN-1
Epoch Orbit1480
Epoch Day317.55658116
Epoch Year2018
RAAN353.1509
Inclination51.6396
Eccentricity0.0006883
Argument of Perigee60.6943
Mean Anonmoly299.4736
Mean Motion15.56594078
Decay Rate9.55E-05
L11 43591U 98067PF 18317.55658116 .00009550 00000-0 13833-3 0 9999
L22 43591 51.6396 353.1509 0006883 60.6943 299.4736 15.56594078 14806

Live tracking and technical data element details for BHUTAN-1 (NORAD 43591). BHUTAN-1 can be tracked NOW for your location showing map with azimuth and elevation plus other details from your city location.

Track the satellite on the map from your city or location and see movement details for azimuth, elevation, latitude, longitude, range, height, and movement on the map or in text.







IsCatalogInMostPopularTable: catalog: 43591, numindb: 33
Update: records affected: 1



GetName: 43591 BHUTAN-1

Hit Count: updated at: Fri, 16 Nov 2018 03:59:24 GMT